Overview Statistics Trail Chart Weather Telemetry Raw packets
 

This is the latest recevied weather packets stored in our database for station/object KB3FKJ. If no packets are shown the sender has not sent any weather packets the latest 10 day(s).

<< 103 104 105 106 107 108 109 >>
Time Temp. Humidity Pressure Rain* Wind** Luminosity Snow
1787758217 21.67° C 76% 1019.1 hPa 0 mm - 39 W/m² -
1787757911 21.67° C 78% 1019 hPa 0 mm - 38 W/m² -
1787757608 21.67° C 78% 1019.2 hPa 0 mm - 38 W/m² -
1787757307 21.11° C 77% 1019.3 hPa 0 mm - 50 W/m² -
1787757001 21.11° C 78% 1019.5 hPa 0 mm - 128 W/m² -
1787756696 21.11° C 78% 1019.2 hPa 0 mm - 122 W/m² -
1787756396 20.56° C 78% 1019.4 hPa 0 mm - 72 W/m² -
1787756090 20.56° C 81% 1019.3 hPa 0 mm - 277 W/m² -
1787755784 20.56° C 79% 1019.4 hPa 0 mm - 67 W/m² -
1787755474 20° C 82% 1019.5 hPa 0 mm - 63 W/m² -
1787755174 20° C 81% 1019.5 hPa 0 mm - 104 W/m² -
1787754867 20° C 82% 1019.4 hPa 0 mm - 50 W/m² -
1787754566 19.44° C 83% 1019.5 hPa 0 mm - 157 W/m² -
1787754265 18.89° C 84% 1019.7 hPa 0 mm - 115 W/m² -
1787753960 19.44° C 81% 1019.6 hPa 0 mm - 345 W/m² -
1787753660 18.89° C 86% 1019.6 hPa 0 mm - 45 W/m² -
1787753358 18.33° C 85% 1019.7 hPa 0 mm - 71 W/m² -
1787753053 18.33° C 85% 1019.7 hPa 0 mm - 35 W/m² -
1787752752 18.33° C 85% 1019.7 hPa 0 mm - 34 W/m² -
1787752447 17.78° C 86% 1019.7 hPa 0 mm - 32 W/m² -
1787752143 17.78° C 86% 1019.8 hPa 0 mm - 33 W/m² -
1787751842 17.78° C 86% 1019.9 hPa 0 mm - 32 W/m² -
1787751537 17.78° C 87% 1019.7 hPa 0 mm - 32 W/m² -
1787751232 17.22° C 88% 1019.8 hPa 0 mm - 32 W/m² -
1787750927 17.22° C 88% 1019.8 hPa 0 mm - 31 W/m² -

* Rain latest hour (hover to see other rain measurements)
** Current wind speed in m/s (hover to see current wind gust speed)